Location: USNO
(38.9242°N, 77.0663°W)
Time: 15:48:36
(UTC-05:00)

Envisat - Pass Details

Date: 08 October 2017
Orbit: 764 x 766 km, 98.2° (Epoch: 16 December)

Event Time Altitude Azimuth Distance (km) Brightness Sun altitude
Exits shadow 20:41:29 55° 46° (NE) 916 3.1 -24.4°
Drops below altitude 10° 20:45:57 10° 355° (N) 2,311 5.7 -25.3°
Sets 20:48:17 0° 352° (N) 3,242 6.5 -25.7°
